| time (UTC) | temp C | wind direction | speed KPH | gust KPH | rain 1hr cm | rain 24hr cm | rain mn cm | humidity % | barometer mb |
| 20260510070038 | 10 | 17 | 1.6 | 1.6 | 0.00 | 0.53 | 0.00 | 36 | 1003.7 |
| 20260510065057 | 10 | 13 | 3.2 | 6.4 | 0.00 | 0.53 | 0.00 | 36 | 1003.4 |
| 20260510064037 | 11 | 20 | 1.6 | 4.8 | 0.00 | 0.53 | 0.00 | 34 | 1003.4 |
| 20260510063056 | 11 | 10 | 3.2 | 6.4 | 0.00 | 0.53 | 0.00 | 34 | 1003.3 |
| 20260510062035 | 11 | 1 | 3.2 | 8.0 | 0.00 | 0.53 | 0.00 | 33 | 1003.3 |
| 20260510061035 | 11 | 336 | 4.8 | 6.4 | 0.00 | 0.53 | 0.00 | 32 | 1003.0 |
| 20260510060154 | 11 | 19 | 4.8 | 11.3 | 0.00 | 0.53 | 0.00 | 31 | 1003.0 |
| 20260510055033 | 11 | 359 | 6.4 | 12.9 | 0.00 | 0.53 | 0.00 | 28 | 1003.2 |
| 20260510054103 | 11 | 9 | 3.2 | 8.0 | 0.00 | 0.53 | 0.00 | 25 | 1003.6 |
| 20260510053102 | 11 | 324 | 1.6 | 4.8 | 0.00 | 0.53 | 0.00 | 25 | 1003.7 |
| 20260510052031 | 12 | 340 | 4.8 | 11.3 | 0.00 | 0.53 | 0.00 | 23 | 1003.2 |
| 20260510051031 | 12 | 306 | 6.4 | 12.9 | 0.00 | 0.53 | 0.00 | 20 | 1002.7 |
| 20260510050030 | 12 | 337 | 8.0 | 17.7 | 0.00 | 0.53 | 0.00 | 16 | 1001.8 |
| 20260510045029 | 13 | 351 | 9.7 | 19.3 | 0.00 | 0.53 | 0.00 | 13 | 1001.7 |
| 20260510044027 | 13 | 332 | 9.7 | 24.1 | 0.00 | 0.53 | 0.00 | 3 | 1002.2 |
| 20260510043026 | 13 | 300 | 1.6 | 4.8 | 0.00 | 0.53 | 0.00 | 1 | 1001.4 |
| 20260510042026 | 13 | 293 | 1.6 | 4.8 | 0.00 | 0.53 | 0.00 | 1 | 1001.0 |
| 20260510041026 | 12 | 210 | 4.8 | 11.3 | 0.00 | 0.53 | 0.00 | 1 | 1000.9 |
| 20260510040145 | 12 | 158 | 0.0 | 1.6 | 0.00 | 0.53 | 0.00 | 1 | 1000.9 |
| 20260510035053 | 12 | 135 | 1.6 | 4.8 | 0.00 | 0.53 | 0.53 | 1 | 1000.7 |
| 20260510034053 | 12 | 0.0 | 0.0 | 0.00 | 0.53 | 0.53 | 1 | 1000.4 | |
| 20260510033022 | 12 | 135 | 0.0 | 1.6 | 0.00 | 0.53 | 0.53 | 2 | 1000.3 |
| 20260510032041 | 12 | 174 | 0.0 | 4.8 | 0.00 | 0.53 | 0.53 | 3 | 1000.4 |
| 20260510031049 | 12 | 208 | 1.6 | 8.0 | 0.00 | 0.53 | 0.53 | 6 | 1000.1 |
| 20260510030049 | 12 | 179 | 1.6 | 4.8 | 0.00 | 0.53 | 0.53 | 8 | 1000.1 |
| 20260510025048 | 12 | 90 | 0.0 | 1.6 | 0.00 | 0.53 | 0.53 | 11 | 1000.1 |
| 20260510024047 | 12 | 90 | 0.0 | 1.6 | 0.00 | 0.53 | 0.53 | 12 | 999.8 |
| 20260510023016 | 13 | 84 | 1.6 | 4.8 | 0.00 | 0.53 | 0.53 | 13 | 1000.0 |
| 20260510022045 | 13 | 191 | 1.6 | 4.8 | 0.00 | 0.53 | 0.53 | 13 | 1000.0 |
| 20260510021124 | 13 | 210 | 1.6 | 4.8 | 0.00 | 0.56 | 0.53 | 13 | 1000.2 |
| 20260510015131 | 13 | 189 | 3.2 | 6.4 | 0.00 | 0.56 | 0.53 | 13 | 1000.0 |
| 20260510014040 | 13 | 201 | 3.2 | 12.9 | 0.00 | 0.56 | 0.53 | 15 | 999.7 |
| 20260510013039 | 13 | 216 | 3.2 | 6.4 | 0.00 | 0.56 | 0.53 | 13 | 999.5 |
| 20260510012039 | 13 | 192 | 4.8 | 8.0 | 0.00 | 0.56 | 0.53 | 12 | 999.3 |
| 20260510011038 | 13 | 215 | 4.8 | 8.0 | 0.00 | 0.56 | 0.53 | 9 | 999.3 |
| 20260510010037 | 13 | 219 | 3.2 | 11.3 | 0.00 | 0.56 | 0.53 | 9 | 999.3 |
| 20260510005107 | 13 | 197 | 4.8 | 11.3 | 0.00 | 0.56 | 0.53 | 6 | 999.3 |
| 20260510004036 | 13 | 204 | 6.4 | 25.7 | 0.00 | 0.56 | 0.53 | 3 | 999.3 |
| 20260510003146 | 13 | 181 | 4.8 | 12.9 | 0.00 | 0.61 | 0.53 | 3 | 999.3 |
| 20260510002035 | 13 | 206 | 3.2 | 17.7 | 0.00 | 0.64 | 0.53 | 2 | 999.1 |
| 20260510001034 | 13 | 204 | 3.2 | 8.0 | 0.00 | 0.64 | 0.53 | 6 | 999.0 |
| 20260510000104 | 13 | 176 | 3.2 | 11.3 | 0.03 | 0.64 | 0.53 | 11 | 999.0 |
| 20260509235103 | 13 | 270 | 1.6 | 6.4 | 0.10 | 0.64 | 0.53 | 14 | 999.0 |
| 20260509234052 | 13 | 205 | 1.6 | 6.4 | 0.23 | 0.64 | 0.53 | 17 | 998.7 |
| 20260509233052 | 13 | 212 | 3.2 | 11.3 | 0.46 | 0.64 | 0.53 | 17 | 998.9 |
| 20260509232031 | 13 | 163 | 4.8 | 16.1 | 0.53 | 0.64 | 0.53 | 21 | 998.8 |
| 20260509231030 | 13 | 163 | 6.4 | 11.3 | 0.53 | 0.64 | 0.53 | 27 | 999.0 |
| 20260509230030 | 13 | 219 | 4.8 | 16.1 | 0.51 | 0.61 | 0.51 | 34 | 999.6 |
| 20260509225029 | 14 | 237 | 4.8 | 12.9 | 0.43 | 0.53 | 0.43 | 42 | 999.7 |
| 20260509224028 | 15 | 256 | 8.0 | 22.5 | 0.30 | 0.41 | 0.30 | 50 | 999.7 |
| 20260509223048 | 18 | 197 | 9.7 | 30.6 | 0.08 | 0.18 | 0.08 | 58 | 999.4 |
| 20260509222027 | 20 | 252 | 6.4 | 17.7 | 0.00 | 0.10 | 0.00 | 52 | 997.2 |
| 20260509221056 | 20 | 189 | 6.4 | 12.9 | 0.00 | 0.10 | 0.00 | 51 | 996.4 |
| 20260509220025 | 21 | 161 | 9.7 | 22.5 | 0.00 | 0.10 | 0.00 | 51 | 996.3 |
| 20260509215054 | 21 | 216 | 11.3 | 29.0 | 0.00 | 0.10 | 0.00 | 52 | 996.2 |
| 20260509214024 | 21 | 183 | 12.9 | 33.8 | 0.00 | 0.10 | 0.00 | 52 | 996.1 |
| 20260509213052 | 21 | 201 | 6.4 | 16.1 | 0.00 | 0.10 | 0.00 | 53 | 995.8 |
| 20260509212052 | 21 | 182 | 9.7 | 22.5 | 0.00 | 0.10 | 0.00 | 52 | 995.9 |
| 20260509211051 | 21 | 174 | 11.3 | 25.7 | 0.00 | 0.10 | 0.00 | 51 | 996.1 |
| 20260509210020 | 21 | 190 | 11.3 | 25.7 | 0.00 | 0.10 | 0.00 | 52 | 996.0 |
| 20260509205049 | 21 | 179 | 11.3 | 22.5 | 0.00 | 0.10 | 0.00 | 53 | 996.6 |
| 20260509204048 | 21 | 192 | 11.3 | 22.5 | 0.00 | 0.10 | 0.00 | 52 | 996.8 |
| 20260509203047 | 21 | 196 | 11.3 | 24.1 | 0.00 | 0.10 | 0.00 | 52 | 996.9 |
| 20260509202046 | 21 | 178 | 8.0 | 22.5 | 0.00 | 0.10 | 0.00 | 53 | 996.8 |
| 20260509201045 | 21 | 176 | 9.7 | 22.5 | 0.00 | 0.10 | 0.00 | 53 | 997.3 |
| 20260509200045 | 21 | 190 | 9.7 | 30.6 | 0.00 | 0.10 | 0.00 | 53 | 997.4 |
| 20260509195044 | 22 | 185 | 9.7 | 24.1 | 0.00 | 0.10 | 0.00 | 51 | 997.5 |
| 20260509194043 | 22 | 163 | 11.3 | 30.6 | 0.00 | 0.10 | 0.00 | 52 | 997.6 |
| 20260509193042 | 22 | 203 | 12.9 | 29.0 | 0.00 | 0.10 | 0.00 | 53 | 997.7 |
| 20260509192102 | 21 | 180 | 8.0 | 19.3 | 0.00 | 0.10 | 0.00 | 54 | 997.8 |
| 20260509191041 | 21 | 188 | 11.3 | 22.5 | 0.00 | 0.10 | 0.00 | 54 | 998.2 |
| 20260509190040 | 21 | 197 | 8.0 | 19.3 | 0.00 | 0.10 | 0.00 | 54 | 998.2 |
| 20260509185040 | 21 | 194 | 9.7 | 19.3 | 0.00 | 0.10 | 0.00 | 54 | 998.4 |
| 20260509184039 | 21 | 200 | 8.0 | 19.3 | 0.00 | 0.10 | 0.00 | 54 | 998.3 |
| 20260509183039 | 22 | 157 | 9.7 | 24.1 | 0.00 | 0.10 | 0.00 | 54 | 998.4 |
| 20260509182038 | 21 | 174 | 8.0 | 29.0 | 0.00 | 0.10 | 0.00 | 56 | 998.2 |
| 20260509181057 | 21 | 195 | 8.0 | 17.7 | 0.00 | 0.10 | 0.00 | 56 | 998.3 |
| 20260509180036 | 21 | 192 | 6.4 | 19.3 | 0.00 | 0.10 | 0.00 | 57 | 998.4 |
| 20260509175035 | 21 | 219 | 9.7 | 24.1 | 0.00 | 0.10 | 0.00 | 57 | 998.5 |
| 20260509174035 | 20 | 153 | 11.3 | 25.7 | 0.00 | 0.10 | 0.00 | 57 | 998.5 |
| 20260509173034 | 20 | 208 | 8.0 | 17.7 | 0.00 | 0.10 | 0.00 | 56 | 998.5 |
| 20260509172053 | 20 | 214 | 6.4 | 16.1 | 0.00 | 0.10 | 0.00 | 52 | 998.7 |
| 20260509171103 | 19 | 226 | 4.8 | 11.3 | 0.00 | 0.10 | 0.00 | 52 | 998.7 |
| 20260509170052 | 20 | 245 | 6.4 | 12.9 | 0.00 | 0.10 | 0.00 | 49 | 998.9 |
| 20260509165031 | 19 | 222 | 8.0 | 16.1 | 0.00 | 0.10 | 0.00 | 52 | 999.1 |
| 20260509164030 | 19 | 218 | 6.4 | 19.3 | 0.00 | 0.10 | 0.00 | 47 | 999.3 |
| 20260509163030 | 18 | 234 | 4.8 | 12.9 | 0.00 | 0.10 | 0.00 | 45 | 999.1 |
| 20260509162029 | 18 | 216 | 8.0 | 19.3 | 0.00 | 0.10 | 0.00 | 47 | 999.1 |
| 20260509161028 | 18 | 170 | 8.0 | 24.1 | 0.00 | 0.10 | 0.00 | 40 | 999.6 |
| 20260509160108 | 17 | 213 | 9.7 | 16.1 | 0.00 | 0.10 | 0.00 | 39 | 999.8 |
| 20260509155027 | 17 | 214 | 9.7 | 22.5 | 0.00 | 0.10 | 0.00 | 36 | 1000.0 |
| 20260509154026 | 17 | 227 | 6.4 | 17.7 | 0.00 | 0.10 | 0.00 | 31 | 1000.0 |
| 20260509153025 | 17 | 221 | 8.0 | 17.7 | 0.00 | 0.10 | 0.00 | 31 | 999.7 |
| 20260509152024 | 16 | 227 | 11.3 | 24.1 | 0.00 | 0.10 | 0.00 | 27 | 999.9 |
| 20260509151114 | 16 | 211 | 6.4 | 16.1 | 0.00 | 0.10 | 0.00 | 23 | 999.9 |
| 20260509150053 | 16 | 242 | 6.4 | 19.3 | 0.00 | 0.10 | 0.00 | 23 | 999.8 |
| 20260509145113 | 16 | 230 | 6.4 | 12.9 | 0.00 | 0.10 | 0.00 | 19 | 1000.0 |
| 20260509144021 | 16 | 216 | 4.8 | 12.9 | 0.00 | 0.10 | 0.00 | 12 | 999.8 |
| 20260509143020 | 15 | 223 | 8.0 | 22.5 | 0.00 | 0.10 | 0.00 | 9 | 1000.0 |
| 20260509142020 | 15 | 202 | 9.7 | 24.1 | 0.00 | 0.10 | 0.00 | 9 | 999.9 |
| 20260509141129 | 14 | 205 | 8.0 | 17.7 | 0.00 | 0.10 | 0.00 | 8 | 1000.0 |
| 20260509140128 | 15 | 201 | 4.8 | 17.7 | 0.00 | 0.10 | 0.00 | 2 | 999.9 |
| 20260509135047 | 14 | 229 | 4.8 | 12.9 | 0.00 | 0.10 | 0.00 | 1 | 999.9 |
| 20260509134046 | 14 | 220 | 3.2 | 4.8 | 0.00 | 0.10 | 0.00 | 1 | 1000.1 |
| 20260509133044 | 14 | 178 | 4.8 | 8.0 | 0.00 | 0.10 | 0.00 | 1 | 1000.0 |
| 20260509132044 | 13 | 206 | 3.2 | 6.4 | 0.00 | 0.10 | 0.00 | 1 | 1000.0 |
| 20260509131043 | 13 | 189 | 4.8 | 11.3 | 0.00 | 0.10 | 0.00 | 1 | 1000.2 |
| 20260509130042 | 13 | 195 | 3.2 | 6.4 | 0.00 | 0.10 | 0.00 | 1 | 1000.1 |
| 20260509125041 | 13 | 163 | 3.2 | 11.3 | 0.00 | 0.10 | 0.00 | 1 | 1000.1 |
| 20260509124040 | 13 | 177 | 3.2 | 6.4 | 0.00 | 0.10 | 0.00 | 1 | 1000.0 |
| 20260509123040 | 13 | 192 | 4.8 | 11.3 | 0.00 | 0.10 | 0.00 | 1 | 1000.1 |
| 20260509122039 | 13 | 191 | 4.8 | 8.0 | 0.00 | 0.10 | 0.00 | 1 | 1000.3 |
| 20260509121058 | 12 | 183 | 3.2 | 8.0 | 0.00 | 0.10 | 0.00 | 1 | 1000.3 |
| 20260509120038 | 12 | 184 | 3.2 | 8.0 | 0.00 | 0.10 | 0.00 | 1 | 1000.3 |
| 20260509115037 | 12 | 192 | 1.6 | 6.4 | 0.00 | 0.10 | 0.00 | 1 | 1000.4 |
| 20260509114106 | 12 | 148 | 3.2 | 11.3 | 0.00 | 0.10 | 0.00 | 1 | 1000.4 |
| 20260509113036 | 12 | 178 | 1.6 | 8.0 | 0.00 | 0.10 | 0.00 | 1 | 1000.2 |
| 20260509112035 | 12 | 182 | 4.8 | 6.4 | 0.00 | 0.10 | 0.00 | 1 | 1000.2 |
| 20260509111035 | 12 | 181 | 3.2 | 6.4 | 0.00 | 0.10 | 0.00 | 1 | 1000.1 |
| 20260509110033 | 12 | 157 | 3.2 | 11.3 | 0.00 | 0.10 | 0.00 | 1 | 1000.1 |
| 20260509105033 | 12 | 192 | 0.0 | 4.8 | 0.00 | 0.10 | 0.00 | 1 | 1000.1 |
| 20260509104143 | 12 | 140 | 1.6 | 4.8 | 0.00 | 0.10 | 0.00 | 1 | 1000.1 |
| 20260509103032 | 12 | 201 | 1.6 | 6.4 | 0.00 | 0.10 | 0.00 | 1 | 1000.3 |
| 20260509102030 | 12 | 174 | 1.6 | 6.4 | 0.00 | 0.10 | 0.00 | 1 | 1000.1 |
| 20260509101050 | 11 | 218 | 0.0 | 4.8 | 0.00 | 0.10 | 0.00 | 1 | 1000.3 |
| 20260509100059 | 11 | 193 | 1.6 | 4.8 | 0.00 | 0.10 | 0.00 | 1 | 1000.3 |
| 20260509095028 | 11 | 225 | 0.0 | 1.6 | 0.00 | 0.10 | 0.00 | 1 | 1000.4 |
| 20260509094217 | 12 | 0.0 | 0.0 | 0.00 | 0.10 | 0.00 | 1 | 1000.3 | |
| 20260509093026 | 12 | 225 | 0.0 | 1.6 | 0.00 | 0.10 | 0.00 | 1 | 1000.1 |
| 20260509092055 | 12 | 165 | 1.6 | 6.4 | 0.00 | 0.10 | 0.00 | 1 | 1000.4 |
| 20260509091025 | 12 | 190 | 1.6 | 8.0 | 0.00 | 0.10 | 0.00 | 1 | 1000.3 |
| 20260509090024 | 12 | 170 | 1.6 | 6.4 | 0.00 | 0.10 | 0.00 | 1 | 1000.5 |
| 20260509085052 | 12 | 131 | 1.6 | 4.8 | 0.00 | 0.10 | 0.00 | 1 | 1000.6 |
| 20260509084022 | 12 | 174 | 3.2 | 8.0 | 0.00 | 0.10 | 0.00 | 1 | 1000.7 |
| 20260509083051 | 12 | 175 | 3.2 | 8.0 | 0.00 | 0.10 | 0.00 | 1 | 1001.0 |
| 20260509082110 | 12 | 190 | 3.2 | 8.0 | 0.00 | 0.10 | 0.00 | 1 | 1000.7 |
| 20260509081049 | 12 | 166 | 3.2 | 8.0 | 0.00 | 0.10 | 0.00 | 1 | 1000.8 |
| 20260509080018 | 12 | 172 | 1.6 | 6.4 | 0.00 | 0.10 | 0.00 | 1 | 1000.7 |
| 20260509075048 | 12 | 180 | 1.6 | 6.4 | 0.00 | 0.10 | 0.00 | 1 | 1000.7 |
| 20260509074047 | 12 | 174 | 1.6 | 4.8 | 0.00 | 0.10 | 0.00 | 1 | 1000.7 |
| 20260509073045 | 11 | 142 | 3.2 | 8.0 | 0.00 | 0.10 | 0.00 | 1 | 1000.8 |
| 20260509072044 | 11 | 191 | 1.6 | 8.0 | 0.00 | 0.10 | 0.00 | 1 | 1000.9 |
| 20260509071043 | 11 | 187 | 1.6 | 8.0 | 0.00 | 0.10 | 0.00 | 1 | 1001.1 |